Location: Wavehorne
(51.0500°N, 0.8333°E)
Time: 09:19:42
(UTC+00:00)

Cosmos 1633 - Visible Passes

Search period start: 28 October 2021 00:00
Search period end: 07 November 2021 00:00
Orbit: 460 x 474 km, 82.5° (Epoch: 27 October)

Date Brightness Start Highest point End Pass type
(mag) Time Alt. Az. Time Alt. Az. Time Alt. Az.
28 Oct 4.6 18:31:13 10° N 18:32:13 16° NNE 18:32:13 16° NNE visible
28 Oct 5.8 20:06:09 10° NW 20:06:15 11° NW 20:06:15 11° NW visible
29 Oct 4.5 18:01:34 10° NNE 18:02:40 15° NE 18:02:40 15° NE visible
29 Oct 5.1 19:35:40 10° NNW 19:36:42 17° NNW 19:36:42 17° NNW visible
30 Oct 4.6 17:32:31 10° NE 17:33:13 11° NE 17:33:13 11° NE visible
30 Oct 4.1 19:05:24 10° NNW 19:07:15 28° NNW 19:07:15 28° NNW visible
31 Oct 3.1 18:35:17 10° N 18:37:55 42° NNE 18:37:55 42° NNE visible
31 Oct 6.0 20:11:40 10° WNW 20:11:58 11° WNW 20:11:58 11° WNW visible
01 Nov 3.1 18:05:20 10° N 18:08:40 34° ENE 18:08:45 34° ENE visible
01 Nov 5.2 19:40:29 10° NW 19:42:49 20° W 19:42:49 20° W visible
02 Nov 3.8 17:35:34 10° NNE 17:38:22 21° ENE 17:39:54 16° ESE visible
02 Nov 4.2 19:09:54 10° NNW 19:13:11 34° W 19:14:00 30° WSW visible
03 Nov 4.4 17:06:14 10° NE 17:07:59 13° ENE 17:09:44 10° E visible
03 Nov 2.9 18:39:33 10° NNW 18:43:08 62° W 18:45:55 15° S visible
04 Nov 2.4 18:09:22 10° N 18:12:59 72° E 18:16:33 10° SSE visible
04 Nov 6.0 19:46:32 10° WNW 19:47:06 10° W 19:47:39 10° W visible
05 Nov 5.7 06:22:29 10° SE 06:24:48 16° E 06:27:08 10° NE visible
05 Nov 2.9 17:39:20 10° N 17:42:45 39° ENE 17:46:08 10° SE visible
05 Nov 5.4 19:14:44 10° NW 19:17:11 17° W 19:19:36 10° SW visible
06 Nov 3.6 17:09:29 10° NNE 17:12:27 23° ENE 17:15:24 10° SE visible
06 Nov 4.5 18:44:01 10° NNW 18:47:11 29° W 18:50:19 10° SSW visible
